Change the Weather History Date:

Friday, June 21, 2013

  Actual Average Record
Temperature  
Mean Temperature 70 °F -  
Max Temperature 79 °F 74 °F 87 °F (1966)
Min Temperature 61 °F 51 °F 37 °F (1972)
Cooling Degree Days 5    
Growing Degree Days 20 (Base 50)    
Moisture  
Dew Point 62 °F    
Average Humidity 76    
Maximum Humidity 97    
Minimum Humidity 52    
Precipitation  
Precipitation 0.33 in - - ()
Sea Level Pressure  
Sea Level Pressure 29.93 in    
Wind  
Wind Speed 9 mph (ESE)    
Max Wind Speed 17 mph    
Max Gust Speed 32 mph    
Visibility 9 miles    
Events Rain , Thunderstorm    
Averages and records for this station are not official NWS values.
T = Trace of Precipitation, MM = Missing Value Source: NWS Daily Summary

Daily Weather History Graph

Daily Weather History Graph

Search for Another Location

Airport or City:

Trip Planner

Search our weather history database for the weather conditions in past years. The results will help you decide how hot, cold, wet, or windy it might be!

Date:

Astronomy

Jun. 21, 2013 Rise Set
Actual Time 5:22 AM CDT 9:20 PM CDT
Civil Twilight 4:41 AM CDT 10:01 PM CDT
Nautical Twilight 3:45 AM CDT 10:57 PM CDT
Astronomical Twilight 2:16 AM CDT 12:27 AM CDT
Moon 7:27 PM CDT (6/21) 3:45 AM CDT (6/21)
Length of Visible Light 17h 19m
Length of Day
15h 58m
Waxing Gibbous, 95% of the Moon is Illuminated
Jun 21
Waxing Gibbous
Jun 23
Full
Jun 29
Last Quarter
Jul 8
New
Jul 15
First Quarter

Hourly Weather History & Observations

Time (CDT) Temp. Dew Point Humidity Pressure Visibility Wind Dir Wind Speed Gust Speed Precip Events Conditions
12:12 AM 63.1 °F 62.1 °F 96% 29.96 in 10.0 mi ESE 12.7 mph - 0.01 in Rain Light Rain
12:31 AM 64.0 °F 63.0 °F 96% 29.94 in 10.0 mi SSE 4.6 mph - 0.02 in Rain , Thunderstorm Light Thunderstorms and Rain
12:52 AM 64.0 °F 63.1 °F 97% 29.93 in 7.0 mi SSW 4.6 mph - 0.06 in Rain Rain
1:12 AM 64.0 °F 63.1 °F 97% 29.93 in 10.0 mi SSE 10.4 mph - 0.01 in Rain , Thunderstorm Light Thunderstorms and Rain
1:31 AM 64.4 °F 63.0 °F 95% 29.94 in 10.0 mi SSE 10.4 mph - 0.03 in Rain Rain
1:52 AM 63.9 °F 62.6 °F 96% 29.97 in 10.0 mi South 10.4 mph - 0.05 in Rain Rain
2:12 AM 63.5 °F 61.7 °F 94% 29.97 in 7.0 mi SSE 15.0 mph 21.9 mph 0.03 in Rain , Thunderstorm Heavy Thunderstorms and Rain
2:31 AM 63.1 °F 61.3 °F 94% 29.96 in 5.0 mi South 17.3 mph - 0.08 in Rain Rain
2:51 AM 62.6 °F 60.8 °F 94% 29.96 in 7.0 mi SSE 15.0 mph 19.6 mph 0.13 in Rain Rain
3:12 AM 62.6 °F 60.3 °F 92% 29.89 in 10.0 mi SE 17.3 mph - 0.03 in Rain Light Rain
3:31 AM 62.8 °F 59.9 °F 90% 29.87 in 10.0 mi ESE 12.7 mph - 0.07 in Rain , Thunderstorm Light Thunderstorms and Rain
3:51 AM 62.6 °F 59.2 °F 89% 29.79 in 10.0 mi East 15.0 mph 32.2 mph 0.09 in Rain Light Rain
4:12 AM 63.7 °F 58.5 °F 83% 29.79 in 10.0 mi ESE 9.2 mph 20.7 mph N/A   Clear
4:31 AM 62.6 °F 58.5 °F 86% 29.78 in 10.0 mi Calm Calm - N/A   Clear
4:51 AM 62.6 °F 58.3 °F 86% 29.78 in 10.0 mi ESE 3.5 mph - N/A   Clear
5:12 AM 61.5 °F 59.0 °F 91% 29.85 in 10.0 mi WNW 15.0 mph - N/A   Clear
5:31 AM 61.7 °F 58.8 °F 90% 29.87 in 7.0 mi WNW 10.4 mph - N/A   Clear
5:52 AM 61.7 °F 59.0 °F 91% 29.88 in 10.0 mi NW 11.5 mph - N/A   Clear
6:12 AM 61.0 °F 59.0 °F 93% 29.90 in 10.0 mi NNW 3.5 mph - N/A   Clear
6:31 AM 61.2 °F 59.0 °F 93% 29.91 in 10.0 mi NNW 3.5 mph - N/A   Clear
6:52 AM 61.3 °F 59.5 °F 94% 29.90 in 10.0 mi North 3.5 mph - N/A   Clear
7:12 AM 61.7 °F 59.9 °F 94% 29.90 in 10.0 mi NNE 3.5 mph - N/A   Clear
7:31 AM 62.2 °F 60.3 °F 93% 29.90 in 10.0 mi Calm Calm - N/A   Clear
7:52 AM 62.8 °F 61.0 °F 94% 29.90 in 10.0 mi NNW 3.5 mph - N/A   Clear
8:12 AM 64.4 °F 61.3 °F 90% 29.90 in 10.0 mi Calm Calm - N/A   Clear
8:31 AM 66.7 °F 61.7 °F 84% 29.91 in 10.0 mi Calm Calm - N/A   Clear
8:51 AM 69.4 °F 61.0 °F 74% 29.90 in 10.0 mi NNE 3.5 mph - N/A   Clear
9:12 AM 71.4 °F 62.2 °F 73% 29.91 in 7.0 mi NE 8.1 mph - N/A   Clear
9:31 AM 72.0 °F 62.6 °F 72% 29.90 in 7.0 mi East 9.2 mph - N/A   Clear
9:51 AM 72.3 °F 62.8 °F 72% 29.91 in 7.0 mi East 11.5 mph - N/A   Clear
10:12 AM 72.1 °F 62.8 °F 72% 29.92 in 10.0 mi East 8.1 mph - N/A   Clear
10:31 AM 72.5 °F 61.7 °F 69% 29.93 in 10.0 mi ENE 6.9 mph - N/A   Clear
10:51 AM 72.7 °F 61.9 °F 69% 29.94 in 10.0 mi East 5.8 mph - N/A   Clear
11:12 AM 74.3 °F 61.9 °F 65% 29.94 in 10.0 mi East 9.2 mph - N/A   Clear
11:31 AM 75.2 °F 61.2 °F 62% 29.94 in 10.0 mi SE 10.4 mph - N/A   Clear
11:51 AM 75.9 °F 60.6 °F 59% 29.93 in 10.0 mi ESE 9.2 mph - N/A   Clear
12:12 PM 76.8 °F 61.7 °F 59% 29.94 in 10.0 mi ESE 11.5 mph - N/A   Clear
12:31 PM 76.3 °F 61.2 °F 59% 29.94 in 10.0 mi ESE 9.2 mph - N/A   Clear
12:51 PM 77.4 °F 61.0 °F 57% 29.94 in 7.0 mi ESE 9.2 mph - N/A   Clear
1:12 PM 77.0 °F 60.8 °F 57% 29.94 in 10.0 mi East 9.2 mph - N/A   Clear
1:32 PM 76.8 °F 61.2 °F 58% 29.93 in 10.0 mi East 10.4 mph - N/A   Clear
1:51 PM 77.4 °F 61.0 °F 57% 29.94 in 10.0 mi East 6.9 mph - N/A   Clear
2:12 PM 77.5 °F 61.5 °F 58% 29.95 in 10.0 mi SSE 4.6 mph - N/A   Clear
2:31 PM 78.4 °F 61.3 °F 56% 29.94 in 5.0 mi East 6.9 mph - N/A   Haze
2:52 PM 79.2 °F 62.2 °F 56% 29.94 in 10.0 mi East 6.9 mph - N/A   Clear
3:12 PM 79.5 °F 61.0 °F 53% 29.96 in 7.0 mi SSE 5.8 mph - N/A   Clear
3:31 PM 79.2 °F 60.8 °F 53% 29.96 in 10.0 mi East 8.1 mph - N/A   Clear
3:52 PM 78.8 °F 59.9 °F 52% 29.96 in 10.0 mi ESE 4.6 mph - N/A   Clear
4:12 PM 79.7 °F 60.4 °F 52% 29.96 in 10.0 mi East 3.5 mph - N/A   Clear
4:31 PM 78.8 °F 60.1 °F 53% 29.97 in 7.0 mi ESE 6.9 mph - N/A   Clear
4:51 PM 78.3 °F 61.5 °F 56% 29.97 in 10.0 mi East 5.8 mph - N/A   Clear
5:12 PM 77.9 °F 62.1 °F 58% 29.98 in 10.0 mi East 4.6 mph - N/A   Clear
5:31 PM 77.0 °F 62.6 °F 61% 29.99 in 7.0 mi South 6.9 mph - N/A   Clear
5:51 PM 75.4 °F 63.9 °F 67% 29.98 in 10.0 mi South 8.1 mph - N/A   Clear
6:12 PM 75.2 °F 63.5 °F 67% 29.98 in 10.0 mi SSE 5.8 mph - N/A   Clear
6:31 PM 74.3 °F 63.7 °F 69% 29.99 in 10.0 mi SSE 6.9 mph - N/A   Clear
6:51 PM 73.6 °F 64.4 °F 73% 30.00 in 10.0 mi SSE 6.9 mph - N/A   Clear
7:12 PM 72.9 °F 63.3 °F 72% 30.00 in 10.0 mi SE 8.1 mph - N/A   Clear
7:31 PM 72.5 °F 63.1 °F 72% 29.99 in 10.0 mi SE 8.1 mph - N/A   Clear
7:52 PM 72.1 °F 62.6 °F 72% 29.99 in 7.0 mi SE 6.9 mph - N/A   Clear
8:12 PM 71.6 °F 62.6 °F 73% 29.98 in 10.0 mi SE 8.1 mph - N/A   Clear
8:31 PM 71.2 °F 62.2 °F 73% 29.98 in 10.0 mi SSE 8.1 mph - N/A   Clear
8:52 PM 71.1 °F 62.1 °F 73% 29.99 in 10.0 mi SE 8.1 mph - N/A   Clear
9:12 PM 70.2 °F 62.8 °F 77% 29.98 in 10.0 mi SE 6.9 mph - N/A   Clear
9:31 PM 69.8 °F 62.8 °F 78% 29.97 in 7.0 mi SE 6.9 mph - N/A   Clear
9:52 PM 68.9 °F 62.6 °F 80% 29.96 in 10.0 mi ESE 5.8 mph - N/A   Scattered Clouds
10:12 PM 68.9 °F 63.0 °F 81% 29.93 in 10.0 mi East 8.1 mph - N/A   Clear
10:31 PM 68.4 °F 62.6 °F 82% 29.89 in 10.0 mi ENE 12.7 mph - N/A   Clear
10:51 PM 68.4 °F 63.0 °F 83% 29.89 in 10.0 mi ENE 8.1 mph - N/A   Clear
11:12 PM 68.4 °F 63.7 °F 85% 29.94 in 10.0 mi SE 3.5 mph - N/A   Clear
11:31 PM 68.0 °F 63.7 °F 86% 29.94 in 10.0 mi East 6.9 mph - N/A   Scattered Clouds
11:51 PM 68.2 °F 63.9 °F 86% 29.95 in 10.0 mi East 9.2 mph - N/A   Scattered Clouds